Time,TemperatureF,DewpointF,PressureIn,WindDirection,WindDirectionDegrees,WindSpeedMPH,WindSpeedGustMPH,Humidity,HourlyPrecipIn,Conditions,Clouds,dailyrainin,SolarRadiationWatts/m^2,SoftwareType,DateUTC
2013-07-22 00:00:00,63.5,51.6,29.71,NNE,25,3.0,-999.0,67,-99.99,,,0.04,0.0,cwc,2013-07-22 06:00:00,
2013-07-22 00:05:00,63.5,51.3,29.71,NNE,25,3.0,-999.0,66,-99.99,,,0.00,0.0,cwc,2013-07-22 06:05:00,
2013-07-22 00:10:00,63.6,51.4,29.71,NNE,25,2.0,-999.0,66,-99.99,,,0.00,0.0,cwc,2013-07-22 06:10:00,
2013-07-22 00:15:00,63.6,51.7,29.71,NNE,25,0.0,-999.0,67,-99.99,,,0.00,0.0,cwc,2013-07-22 06:15:00,
2013-07-22 00:25:00,63.3,50.7,29.71,NNE,25,0.0,-999.0,65,-99.99,,,0.00,0.0,cwc,2013-07-22 06:25:00,
2013-07-22 00:35:00,63.1,50.9,29.72,NNE,25,0.0,-999.0,66,-99.99,,,0.00,0.0,cwc,2013-07-22 06:35:00,
2013-07-22 00:40:00,63.1,51.6,29.72,NNE,25,0.0,-999.0,68,-99.99,,,0.00,0.0,cwc,2013-07-22 06:40:00,
2013-07-22 00:45:00,63.0,51.5,29.72,NNE,25,0.0,-999.0,68,-99.99,,,0.00,0.0,cwc,2013-07-22 06:45:00,
2013-07-22 00:50:00,62.7,50.8,29.72,NNE,25,2.0,-999.0,67,-99.99,,,0.00,0.0,cwc,2013-07-22 06:50:00,
2013-07-22 01:00:00,62.5,51.3,29.72,NNE,25,0.0,-999.0,69,-99.99,,,0.00,0.0,cwc,2013-07-22 07:00:00,
2013-07-22 01:05:00,62.3,50.8,29.72,NNE,25,0.0,-999.0,68,-99.99,,,0.00,0.0,cwc,2013-07-22 07:05:00,
2013-07-22 01:10:00,62.1,50.6,29.72,NNE,25,0.0,-999.0,68,-99.99,,,0.00,0.0,cwc,2013-07-22 07:10:00,
2013-07-22 01:15:00,61.8,50.3,29.72,NNE,25,0.0,-999.0,68,-99.99,,,0.00,0.0,cwc,2013-07-22 07:15:00,
2013-07-22 01:20:00,61.6,50.1,29.72,NNE,25,0.0,-999.0,68,-99.99,,,0.00,0.0,cwc,2013-07-22 07:20:00,
2013-07-22 01:25:00,61.6,49.7,29.72,NNE,25,0.0,-999.0,67,-99.99,,,0.00,0.0,cwc,2013-07-22 07:25:00,
2013-07-22 01:30:00,61.6,50.4,29.72,NNE,25,0.0,-999.0,69,-99.99,,,0.00,0.0,cwc,2013-07-22 07:30:00,
2013-07-22 01:35:00,61.5,50.7,29.72,NNE,25,0.0,-999.0,70,-99.99,,,0.00,0.0,cwc,2013-07-22 07:35:00,
2013-07-22 01:40:00,61.4,50.6,29.71,NNE,25,0.0,-999.0,70,-99.99,,,0.00,0.0,cwc,2013-07-22 07:40:00,
2013-07-22 01:45:00,61.1,50.3,29.71,NNE,25,0.0,-999.0,70,-99.99,,,0.00,0.0,cwc,2013-07-22 07:45:00,
2013-07-22 01:50:00,61.0,49.8,29.71,NNE,25,2.0,-999.0,69,-99.99,,,0.00,0.0,cwc,2013-07-22 07:50:00,
2013-07-22 01:55:00,61.0,49.8,29.71,NNE,25,2.0,-999.0,69,-99.99,,,0.00,0.0,cwc,2013-07-22 07:55:00,
2013-07-22 02:00:00,61.1,50.7,29.71,NNE,25,0.0,-999.0,71,-99.99,,,0.00,0.0,cwc,2013-07-22 08:00:00,
2013-07-22 02:05:00,61.0,50.2,29.71,NNE,25,0.0,-999.0,70,-99.99,,,0.00,0.0,cwc,2013-07-22 08:05:00,
2013-07-22 02:10:00,60.8,50.4,29.71,NNE,25,0.0,-999.0,71,-99.99,,,0.00,0.0,cwc,2013-07-22 08:10:00,
2013-07-22 02:15:00,60.6,50.5,29.71,NNE,25,0.0,-999.0,72,-99.99,,,0.00,0.0,cwc,2013-07-22 08:15:00,
2013-07-22 02:20:00,60.5,50.4,29.71,NNE,25,0.0,-999.0,72,-99.99,,,0.00,0.0,cwc,2013-07-22 08:20:00,
2013-07-22 02:25:00,60.4,50.3,29.71,NNE,25,1.0,-999.0,72,-99.99,,,0.00,0.0,cwc,2013-07-22 08:25:00,
2013-07-22 02:30:00,60.2,49.8,29.71,NNE,25,3.0,-999.0,71,-99.99,,,0.00,0.0,cwc,2013-07-22 08:30:00,
2013-07-22 02:35:00,60.2,49.8,29.72,NNE,25,3.0,-999.0,71,-99.99,,,0.00,0.0,cwc,2013-07-22 08:35:00,
2013-07-22 02:40:00,60.3,49.9,29.72,NNE,25,0.0,-999.0,71,-99.99,,,0.00,0.0,cwc,2013-07-22 08:40:00,
2013-07-22 02:45:00,60.1,49.7,29.72,NNE,25,0.0,-999.0,71,-99.99,,,0.00,0.0,cwc,2013-07-22 08:45:00,
2013-07-22 02:55:00,59.4,49.3,29.72,NNE,25,0.0,-999.0,72,-99.99,,,0.00,0.0,cwc,2013-07-22 08:55:00,
2013-07-22 03:00:00,59.0,48.9,29.72,NNE,25,2.0,-999.0,72,-99.99,,,0.00,0.0,cwc,2013-07-22 09:00:00,
2013-07-22 03:10:00,58.7,49.0,29.72,NNE,25,2.0,-999.0,73,-99.99,,,0.00,0.0,cwc,2013-07-22 09:10:00,
2013-07-22 03:15:00,58.6,48.9,29.72,NNE,25,0.0,-999.0,73,-99.99,,,0.00,0.0,cwc,2013-07-22 09:15:00,
2013-07-22 03:20:00,58.5,48.8,29.73,NNE,25,0.0,-999.0,73,-99.99,,,0.00,0.0,cwc,2013-07-22 09:20:00,
2013-07-22 03:25:00,58.2,48.1,29.72,NNE,25,3.0,-999.0,72,-99.99,,,0.00,0.0,cwc,2013-07-22 09:25:00,
2013-07-22 03:30:00,58.0,48.3,29.73,NNE,25,2.0,-999.0,73,-99.99,,,0.00,0.0,cwc,2013-07-22 09:30:00,
2013-07-22 03:40:00,57.4,48.0,29.73,NNE,25,3.0,-999.0,74,-99.99,,,0.00,0.0,cwc,2013-07-22 09:40:00,
2013-07-22 03:45:00,57.3,47.9,29.73,NNE,25,1.0,-999.0,74,-99.99,,,0.00,0.0,cwc,2013-07-22 09:45:00,
2013-07-22 03:50:00,57.3,47.9,29.73,NNE,25,2.0,-999.0,74,-99.99,,,0.00,0.0,cwc,2013-07-22 09:50:00,
2013-07-22 03:55:00,57.1,47.7,29.72,NNE,25,0.0,-999.0,74,-99.99,,,0.00,0.0,cwc,2013-07-22 09:55:00,
2013-07-22 04:00:00,57.0,47.6,29.73,NNE,25,0.0,-999.0,74,-99.99,,,0.00,0.0,cwc,2013-07-22 10:00:00,
2013-07-22 04:05:00,56.8,47.4,29.73,NNE,25,0.0,-999.0,74,-99.99,,,0.00,0.0,cwc,2013-07-22 10:05:00,
2013-07-22 04:10:00,56.5,47.5,29.73,NNE,25,0.0,-999.0,75,-99.99,,,0.00,0.0,cwc,2013-07-22 10:10:00,
2013-07-22 04:20:00,56.3,47.3,29.73,NNE,25,0.0,-999.0,75,-99.99,,,0.00,0.0,cwc,2013-07-22 10:20:00,
2013-07-22 04:25:00,55.9,47.3,29.73,NNE,25,2.0,-999.0,76,-99.99,,,0.00,0.0,cwc,2013-07-22 10:25:00,
2013-07-22 04:30:00,55.5,47.2,29.73,NNE,25,0.0,-999.0,77,-99.99,,,0.00,0.0,cwc,2013-07-22 10:30:00,
2013-07-22 04:35:00,55.2,46.9,29.73,NNE,25,0.0,-999.0,77,-99.99,,,0.00,0.0,cwc,2013-07-22 10:35:00,
2013-07-22 04:40:00,55.1,46.8,29.73,NNE,25,2.0,-999.0,77,-99.99,,,0.00,0.0,cwc,2013-07-22 10:40:00,
2013-07-22 04:45:00,55.2,46.9,29.73,NNE,25,1.0,-999.0,77,-99.99,,,0.00,0.0,cwc,2013-07-22 10:45:00,
2013-07-22 04:50:00,55.2,46.9,29.73,NNE,25,2.0,-999.0,77,-99.99,,,0.00,0.0,cwc,2013-07-22 10:50:00,
2013-07-22 04:55:00,55.1,46.8,29.73,NNE,25,2.0,-999.0,77,-99.99,,,0.00,0.0,cwc,2013-07-22 10:55:00,
2013-07-22 05:00:00,54.8,46.5,29.73,NNE,25,0.0,-999.0,77,-99.99,,,0.00,0.0,cwc,2013-07-22 11:00:00,
2013-07-22 05:05:00,54.4,46.5,29.73,NNE,25,0.0,-999.0,78,-99.99,,,0.00,0.0,cwc,2013-07-22 11:05:00,
2013-07-22 05:10:00,54.0,46.4,29.73,NNE,25,4.0,-999.0,79,-99.99,,,0.00,0.0,cwc,2013-07-22 11:10:00,
2013-07-22 05:15:00,53.8,46.2,29.74,NNE,25,3.0,-999.0,79,-99.99,,,0.00,0.0,cwc,2013-07-22 11:15:00,
2013-07-22 05:20:00,54.0,46.4,29.74,NNE,25,0.0,-999.0,79,-99.99,,,0.00,0.0,cwc,2013-07-22 11:20:00,
2013-07-22 05:25:00,54.0,46.4,29.74,NNE,25,0.0,-999.0,79,-99.99,,,0.00,0.0,cwc,2013-07-22 11:25:00,
2013-07-22 05:35:00,53.8,46.2,29.74,NNE,25,1.0,-999.0,79,-99.99,,,0.00,0.0,cwc,2013-07-22 11:35:00,
2013-07-22 05:40:00,53.8,46.2,29.74,NNE,25,2.0,-999.0,79,-99.99,,,0.00,0.0,cwc,2013-07-22 11:40:00,
2013-07-22 05:45:00,53.8,46.2,29.74,NNE,25,2.0,-999.0,79,-99.99,,,0.00,0.0,cwc,2013-07-22 11:45:00,
2013-07-22 05:50:00,54.2,46.3,29.75,NNE,25,0.0,-999.0,78,-99.99,,,0.00,0.0,cwc,2013-07-22 11:50:00,
2013-07-22 05:55:00,54.3,46.0,29.74,NNE,25,1.0,-999.0,77,-99.99,,,0.00,0.0,cwc,2013-07-22 11:55:00,
2013-07-22 06:05:00,54.1,46.2,29.75,NNE,25,3.0,-999.0,78,-99.99,,,0.00,0.0,cwc,2013-07-22 12:05:00,
2013-07-22 06:10:00,54.0,46.1,29.75,NNE,25,3.0,-999.0,78,-99.99,,,0.00,0.0,cwc,2013-07-22 12:10:00,
2013-07-22 06:15:00,54.0,46.1,29.75,NNE,25,2.0,-999.0,78,-99.99,,,0.00,5.0,cwc,2013-07-22 12:15:00,
2013-07-22 06:20:00,54.1,45.8,29.75,NNE,25,0.0,-999.0,77,-99.99,,,0.00,7.0,cwc,2013-07-22 12:20:00,
2013-07-22 06:25:00,53.9,45.6,29.75,NNE,25,3.0,-999.0,77,-99.99,,,0.00,11.0,cwc,2013-07-22 12:25:00,
2013-07-22 06:30:00,53.9,46.0,29.76,NNE,25,0.0,-999.0,78,-99.99,,,0.00,14.0,cwc,2013-07-22 12:30:00,
2013-07-22 06:35:00,53.8,45.9,29.76,NNE,25,0.0,-999.0,78,-99.99,,,0.00,23.0,cwc,2013-07-22 12:35:00,
2013-07-22 06:40:00,53.8,45.9,29.76,NNE,25,0.0,-999.0,78,-99.99,,,0.00,46.0,cwc,2013-07-22 12:40:00,
2013-07-22 06:45:00,53.7,45.8,29.76,NNE,25,1.0,-999.0,78,-99.99,,,0.00,35.0,cwc,2013-07-22 12:45:00,
2013-07-22 06:50:00,53.9,46.3,29.76,NNE,25,2.0,-999.0,79,-99.99,,,0.00,44.0,cwc,2013-07-22 12:50:00,
2013-07-22 06:55:00,54.2,46.6,29.75,NNE,25,0.0,-999.0,79,-99.99,,,0.00,86.0,cwc,2013-07-22 12:55:00,
2013-07-22 07:00:00,54.6,47.0,29.76,NNE,25,1.0,-999.0,79,-99.99,,,0.00,84.0,cwc,2013-07-22 13:00:00,
2013-07-22 07:05:00,55.1,47.2,29.76,NNE,25,0.0,-999.0,78,-99.99,,,0.00,116.0,cwc,2013-07-22 13:05:00,
2013-07-22 07:10:00,55.6,47.3,29.76,NNE,25,0.0,-999.0,77,-99.99,,,0.00,142.0,cwc,2013-07-22 13:10:00,
2013-07-22 07:15:00,56.3,48.0,29.76,NNE,25,0.0,-999.0,77,-99.99,,,0.00,165.0,cwc,2013-07-22 13:15:00,
2013-07-22 07:20:00,56.9,48.3,29.75,NNE,25,0.0,-999.0,76,-99.99,,,0.00,190.0,cwc,2013-07-22 13:20:00,
2013-07-22 07:25:00,57.7,49.1,29.75,NNE,25,0.0,-999.0,76,-99.99,,,0.00,207.0,cwc,2013-07-22 13:25:00,
2013-07-22 07:30:00,58.5,49.5,29.76,NNE,25,0.0,-999.0,75,-99.99,,,0.00,225.0,cwc,2013-07-22 13:30:00,
2013-07-22 07:35:00,59.1,49.0,29.76,NNE,25,0.0,-999.0,72,-99.99,,,0.00,234.0,cwc,2013-07-22 13:35:00,
2013-07-22 07:40:00,60.2,49.8,29.76,NNE,25,0.0,-999.0,71,-99.99,,,0.00,251.0,cwc,2013-07-22 13:40:00,
2013-07-22 07:45:00,61.1,48.9,29.76,NNE,25,2.0,-999.0,66,-99.99,,,0.00,269.0,cwc,2013-07-22 13:45:00,
2013-07-22 07:50:00,61.9,48.9,29.76,NNE,25,0.0,-999.0,64,-99.99,,,0.00,287.0,cwc,2013-07-22 13:50:00,
2013-07-22 07:55:00,62.6,48.9,29.76,NNE,25,0.0,-999.0,62,-99.99,,,0.00,304.0,cwc,2013-07-22 13:55:00,
2013-07-22 08:05:00,64.0,49.2,29.76,NNE,25,2.0,-999.0,59,-99.99,,,0.00,336.0,cwc,2013-07-22 14:05:00,
2013-07-22 08:10:00,64.8,50.0,29.76,NNE,25,0.0,-999.0,59,-99.99,,,0.00,355.0,cwc,2013-07-22 14:10:00,
2013-07-22 08:15:00,65.4,49.9,29.76,NNE,25,0.0,-999.0,57,-99.99,,,0.00,369.0,cwc,2013-07-22 14:15:00,
2013-07-22 08:20:00,66.1,49.9,29.76,NNE,25,0.0,-999.0,55,-99.99,,,0.00,388.0,cwc,2013-07-22 14:20:00,
2013-07-22 08:25:00,66.8,50.6,29.76,NNE,25,2.0,-999.0,55,-99.99,,,0.00,406.0,cwc,2013-07-22 14:25:00,
2013-07-22 08:30:00,67.4,50.5,29.76,NNE,25,1.0,-999.0,53,-99.99,,,0.00,420.0,cwc,2013-07-22 14:30:00,
2013-07-22 08:35:00,67.7,51.1,29.76,NNE,25,1.0,-999.0,54,-99.99,,,0.00,439.0,cwc,2013-07-22 14:35:00,
2013-07-22 08:45:00,68.9,51.6,29.75,NNE,25,0.0,-999.0,52,-99.99,,,0.00,473.0,cwc,2013-07-22 14:45:00,
2013-07-22 08:50:00,69.6,52.0,29.75,NNE,25,0.0,-999.0,51,-99.99,,,0.00,318.0,cwc,2013-07-22 14:50:00,
2013-07-22 08:55:00,70.1,51.7,29.75,NNE,25,0.0,-999.0,49,-99.99,,,0.00,508.0,cwc,2013-07-22 14:55:00,
2013-07-22 09:00:00,70.6,51.9,29.75,NNE,25,0.0,-999.0,48,-99.99,,,0.00,520.0,cwc,2013-07-22 15:00:00,
2013-07-22 09:05:00,70.9,52.2,29.75,NNE,25,0.0,-999.0,48,-99.99,,,0.00,534.0,cwc,2013-07-22 15:05:00,
2013-07-22 09:10:00,71.3,52.6,29.74,NNE,25,2.0,-999.0,48,-99.99,,,0.00,550.0,cwc,2013-07-22 15:10:00,
2013-07-22 09:15:00,71.5,52.8,29.74,NNE,25,0.0,-999.0,48,-99.99,,,0.00,559.0,cwc,2013-07-22 15:15:00,
2013-07-22 09:20:00,72.3,53.6,29.74,NNE,25,0.0,-999.0,48,-99.99,,,0.00,582.0,cwc,2013-07-22 15:20:00,
2013-07-22 09:25:00,73.1,54.0,29.74,NNE,25,0.0,-999.0,47,-99.99,,,0.00,598.0,cwc,2013-07-22 15:25:00,
2013-07-22 09:30:00,73.7,53.9,29.73,NNE,25,3.0,-999.0,45,-99.99,,,0.00,613.0,cwc,2013-07-22 15:30:00,
2013-07-22 09:35:00,74.2,54.4,29.73,NNE,25,3.0,-999.0,45,-99.99,,,0.00,629.0,cwc,2013-07-22 15:35:00,
2013-07-22 09:40:00,75.0,54.5,29.73,NNE,25,1.0,-999.0,43,-99.99,,,0.00,642.0,cwc,2013-07-22 15:40:00,
2013-07-22 09:45:00,75.8,54.9,29.73,NNE,25,0.0,-999.0,42,-99.99,,,0.00,656.0,cwc,2013-07-22 15:45:00,
2013-07-22 09:50:00,76.5,55.3,29.73,NNE,25,0.0,-999.0,41,-99.99,,,0.00,673.0,cwc,2013-07-22 15:50:00,
2013-07-22 09:55:00,77.4,55.8,29.73,NNE,25,1.0,-999.0,40,-99.99,,,0.00,682.0,cwc,2013-07-22 15:55:00,
2013-07-22 10:00:00,78.1,56.1,29.73,NNE,25,1.0,-999.0,39,-99.99,,,0.00,700.0,cwc,2013-07-22 16:00:00,
2013-07-22 10:05:00,78.7,56.7,29.73,NNE,25,0.0,-999.0,39,-99.99,,,0.00,714.0,cwc,2013-07-22 16:05:00,
2013-07-22 10:10:00,79.2,56.5,29.73,NNE,25,0.0,-999.0,37,-99.99,,,0.00,728.0,cwc,2013-07-22 16:10:00,
2013-07-22 10:15:00,79.4,57.1,29.73,NNE,25,2.0,-999.0,38,-99.99,,,0.00,737.0,cwc,2013-07-22 16:15:00,
2013-07-22 10:20:00,79.4,56.7,29.73,NNE,25,0.0,-999.0,37,-99.99,,,0.00,747.0,cwc,2013-07-22 16:20:00,
2013-07-22 10:25:00,80.0,57.3,29.72,NNE,25,0.0,-999.0,37,-99.99,,,0.00,761.0,cwc,2013-07-22 16:25:00,
2013-07-22 10:30:00,81.0,58.0,29.72,NNE,25,0.0,-999.0,36,-99.99,,,0.00,775.0,cwc,2013-07-22 16:30:00,
2013-07-22 10:35:00,81.6,58.2,29.72,NNE,25,0.0,-999.0,35,-99.99,,,0.00,788.0,cwc,2013-07-22 16:35:00,
2013-07-22 10:40:00,82.1,58.3,29.72,NNE,25,1.0,-999.0,34,-99.99,,,0.00,798.0,cwc,2013-07-22 16:40:00,
2013-07-22 10:45:00,82.1,58.3,29.72,NNE,25,2.0,-999.0,34,-99.99,,,0.00,809.0,cwc,2013-07-22 16:45:00,
2013-07-22 10:50:00,82.0,58.2,29.71,NNE,25,0.0,-999.0,34,-99.99,,,0.00,817.0,cwc,2013-07-22 16:50:00,
2013-07-22 10:55:00,82.3,58.5,29.71,NNE,25,0.0,-999.0,34,-99.99,,,0.00,828.0,cwc,2013-07-22 16:55:00,
2013-07-22 11:00:00,83.2,59.4,29.71,NNE,25,0.0,-999.0,34,-99.99,,,0.00,840.0,cwc,2013-07-22 17:00:00,
2013-07-22 11:05:00,84.1,59.6,29.71,NNE,25,1.0,-999.0,32,-99.99,,,0.00,853.0,cwc,2013-07-22 17:05:00,
2013-07-22 11:10:00,84.6,60.1,29.70,NNE,25,4.0,-999.0,32,-99.99,,,0.00,861.0,cwc,2013-07-22 17:10:00,
2013-07-22 11:15:00,84.7,59.9,29.70,North,5,2.0,-999.0,31,-99.99,,,0.00,868.0,cwc,2013-07-22 17:15:00,
2013-07-22 11:20:00,84.6,59.8,29.70,NNE,29,0.0,-999.0,31,-99.99,,,0.00,877.0,cwc,2013-07-22 17:20:00,
2013-07-22 11:30:00,85.6,60.4,29.69,NE,39,3.0,-999.0,30,-99.99,,,0.00,895.0,cwc,2013-07-22 17:30:00,
2013-07-22 11:35:00,86.3,61.1,29.69,NE,40,0.0,-999.0,30,-99.99,,,0.00,905.0,cwc,2013-07-22 17:35:00,
2013-07-22 11:40:00,87.1,61.5,29.69,NE,53,0.0,-999.0,29,-99.99,,,0.00,914.0,cwc,2013-07-22 17:40:00,
2013-07-22 11:45:00,87.4,61.5,29.68,NE,53,0.0,-999.0,28,-99.99,,,0.00,919.0,cwc,2013-07-22 17:45:00,
2013-07-22 11:50:00,87.5,61.6,29.68,NE,54,0.0,-999.0,28,-99.99,,,0.00,925.0,cwc,2013-07-22 17:50:00,
2013-07-22 11:55:00,87.9,61.6,29.68,NE,36,3.0,-999.0,27,-99.99,,,0.00,930.0,cwc,2013-07-22 17:55:00,
2013-07-22 12:00:00,87.6,61.3,29.67,NE,44,5.0,-999.0,27,-99.99,,,0.00,937.0,cwc,2013-07-22 18:00:00,
2013-07-22 12:10:00,87.7,61.4,29.67,NNE,21,7.0,-999.0,27,-99.99,,,0.00,946.0,cwc,2013-07-22 18:10:00,
2013-07-22 12:25:00,88.7,62.1,29.66,NNE,24,4.0,-999.0,26,-99.99,,,0.00,958.0,cwc,2013-07-22 18:25:00,
2013-07-22 12:30:00,89.2,62.6,29.65,NNE,27,3.0,-999.0,26,-99.99,,,0.00,962.0,cwc,2013-07-22 18:30:00,
2013-07-22 12:35:00,89.8,62.8,29.65,NNE,26,1.0,-999.0,25,-99.99,,,0.00,967.0,cwc,2013-07-22 18:35:00,
2013-07-22 12:40:00,90.4,63.0,29.65,North,360,4.0,-999.0,24,-99.99,,,0.00,969.0,cwc,2013-07-22 18:40:00,
2013-07-22 12:55:00,91.2,62.8,29.64,NNE,30,5.0,-999.0,21,-99.99,,,0.00,972.0,cwc,2013-07-22 18:55:00,
2013-07-22 13:00:00,91.2,63.8,29.64,North,355,2.0,-999.0,24,-99.99,,,0.00,969.0,cwc,2013-07-22 19:00:00,
2013-07-22 13:05:00,91.1,63.0,29.64,West,281,2.0,-999.0,22,-99.99,,,0.00,969.0,cwc,2013-07-22 19:05:00,
2013-07-22 13:15:00,91.8,63.4,29.63,WSW,254,1.0,-999.0,21,-99.99,,,0.00,974.0,cwc,2013-07-22 19:15:00,
2013-07-22 13:20:00,92.7,65.3,29.63,South,173,1.0,-999.0,24,-99.99,,,0.00,976.0,cwc,2013-07-22 19:20:00,
2013-07-22 13:25:00,92.0,64.6,29.63,SW,221,6.0,-999.0,24,-99.99,,,0.00,969.0,cwc,2013-07-22 19:25:00,
2013-07-22 13:30:00,91.4,64.0,29.62,SSW,207,2.0,-999.0,24,-99.99,,,0.00,965.0,cwc,2013-07-22 19:30:00,
2013-07-22 13:40:00,92.5,64.1,29.62,ESE,115,0.0,-999.0,21,-99.99,,,0.00,965.0,cwc,2013-07-22 19:40:00,
2013-07-22 13:45:00,92.8,64.7,29.62,ESE,120,1.0,-999.0,22,-99.99,,,0.00,967.0,cwc,2013-07-22 19:45:00,
2013-07-22 13:50:00,93.2,64.8,29.61,South,188,6.0,-999.0,21,-99.99,,,0.00,962.0,cwc,2013-07-22 19:50:00,
2013-07-22 14:00:00,92.6,64.9,29.61,SSW,192,7.0,-999.0,23,-99.99,,,0.00,956.0,cwc,2013-07-22 20:00:00,
2013-07-22 14:05:00,92.2,64.1,29.61,SE,144,3.0,-999.0,22,-99.99,,,0.00,953.0,cwc,2013-07-22 20:05:00,
2013-07-22 14:15:00,92.9,63.7,29.60,SW,227,5.0,-999.0,19,-99.99,,,0.00,951.0,cwc,2013-07-22 20:15:00,
2013-07-22 14:20:00,93.2,64.0,29.60,SSE,150,3.0,-999.0,19,-99.99,,,0.00,949.0,cwc,2013-07-22 20:20:00,
2013-07-22 14:25:00,93.7,64.2,29.59,South,169,6.0,-999.0,18,-99.99,,,0.00,946.0,cwc,2013-07-22 20:25:00,
2013-07-22 14:30:00,93.5,64.0,29.59,ESE,123,2.0,-999.0,18,-99.99,,,0.00,940.0,cwc,2013-07-22 20:30:00,
2013-07-22 14:35:00,93.7,64.2,29.59,SSW,207,2.0,-999.0,18,-99.99,,,0.00,937.0,cwc,2013-07-22 20:35:00,
2013-07-22 14:40:00,94.1,64.6,29.59,SSW,200,7.0,-999.0,18,-99.99,,,0.00,932.0,cwc,2013-07-22 20:40:00,
2013-07-22 14:45:00,94.2,64.3,29.58,South,190,7.0,-999.0,17,-99.99,,,0.00,935.0,cwc,2013-07-22 20:45:00,
2013-07-22 14:50:00,94.4,64.5,29.58,South,186,5.0,-999.0,17,-99.99,,,0.00,932.0,cwc,2013-07-22 20:50:00,
2013-07-22 15:00:00,94.9,65.4,29.58,South,181,2.0,-999.0,18,-99.99,,,0.00,925.0,cwc,2013-07-22 21:00:00,
2013-07-22 15:05:00,95.4,65.9,29.57,SSW,202,7.0,-999.0,18,-99.99,,,0.00,926.0,cwc,2013-07-22 21:05:00,
2013-07-22 15:10:00,95.5,66.3,29.57,WSW,240,0.0,-999.0,19,-99.99,,,0.00,953.0,cwc,2013-07-22 21:10:00,
2013-07-22 15:15:00,95.4,66.2,29.57,SW,215,4.0,-999.0,19,-99.99,,,0.00,900.0,cwc,2013-07-22 21:15:00,
2013-07-22 15:20:00,94.9,65.4,29.57,WSW,251,1.0,-999.0,18,-99.99,,,0.00,900.0,cwc,2013-07-22 21:20:00,
2013-07-22 15:25:00,94.5,65.0,29.57,South,180,5.0,-999.0,18,-99.99,,,0.00,1013.0,cwc,2013-07-22 21:25:00,
2013-07-22 15:30:00,94.6,65.1,29.56,NE,56,8.0,-999.0,18,-99.99,,,0.00,965.0,cwc,2013-07-22 21:30:00,
2013-07-22 15:35:00,95.0,65.1,29.57,North,349,7.0,-999.0,17,-99.99,,,0.00,889.0,cwc,2013-07-22 21:35:00,
2013-07-22 15:40:00,94.9,65.0,29.57,North,355,4.0,-999.0,17,-99.99,,,0.00,933.0,cwc,2013-07-22 21:40:00,
2013-07-22 15:45:00,95.1,65.2,29.56,NNE,22,4.0,-999.0,17,-99.99,,,0.00,870.0,cwc,2013-07-22 21:45:00,
2013-07-22 15:50:00,95.0,65.1,29.56,NE,52,0.0,-999.0,17,-99.99,,,0.00,174.0,cwc,2013-07-22 21:50:00,
2013-07-22 15:55:00,93.4,63.9,29.58,SW,215,18.0,-999.0,18,-99.99,,,0.00,169.0,cwc,2013-07-22 21:55:00,
2013-07-22 16:00:00,91.1,61.9,29.58,SSE,157,6.0,-999.0,19,-99.99,,,0.00,127.0,cwc,2013-07-22 22:00:00,
2013-07-22 16:05:00,90.4,61.6,29.58,SSE,150,4.0,-999.0,20,-99.99,,,0.00,105.0,cwc,2013-07-22 22:05:00,
2013-07-22 16:10:00,90.1,61.7,29.58,South,187,12.0,-999.0,21,-99.99,,,0.00,95.0,cwc,2013-07-22 22:10:00,
2013-07-22 16:15:00,89.2,60.8,29.58,SSE,163,10.0,-999.0,21,-99.99,,,0.00,102.0,cwc,2013-07-22 22:15:00,
2013-07-22 16:20:00,88.2,60.5,29.59,SE,137,5.0,-999.0,23,-99.99,,,0.00,100.0,cwc,2013-07-22 22:20:00,
2013-07-22 16:25:00,87.3,59.9,29.58,SSW,196,16.0,-999.0,24,-99.99,,,0.00,120.0,cwc,2013-07-22 22:25:00,
2013-07-22 16:30:00,86.9,59.5,29.58,SE,139,5.0,-999.0,24,-99.99,,,0.00,123.0,cwc,2013-07-22 22:30:00,
2013-07-22 16:35:00,86.9,59.5,29.58,SSW,194,8.0,-999.0,24,-99.99,,,0.00,107.0,cwc,2013-07-22 22:35:00,
2013-07-22 16:40:00,87.2,59.5,29.58,South,187,6.0,-999.0,23,-99.99,,,0.00,104.0,cwc,2013-07-22 22:40:00,
2013-07-22 16:45:00,87.4,59.7,29.59,South,173,8.0,-999.0,23,-99.99,,,0.00,90.0,cwc,2013-07-22 22:45:00,
2013-07-22 16:50:00,87.4,59.7,29.58,SSW,196,7.0,-999.0,23,-99.99,,,0.00,74.0,cwc,2013-07-22 22:50:00,
2013-07-22 16:55:00,87.4,59.7,29.59,SSE,154,4.0,-999.0,23,-99.99,,,0.00,70.0,cwc,2013-07-22 22:55:00,
2013-07-22 17:00:00,87.2,59.5,29.59,South,184,8.0,-999.0,23,-99.99,,,0.00,70.0,cwc,2013-07-22 23:00:00,
2013-07-22 17:05:00,86.9,59.2,29.59,South,182,6.0,-999.0,23,-99.99,,,0.00,63.0,cwc,2013-07-22 23:05:00,
2013-07-22 17:15:00,86.6,58.9,29.59,SSE,164,8.0,-999.0,23,-99.99,,,0.00,58.0,cwc,2013-07-22 23:15:00,
2013-07-22 17:20:00,86.4,58.7,29.59,SSW,195,10.0,-999.0,23,-99.99,,,0.00,58.0,cwc,2013-07-22 23:20:00,
2013-07-22 17:25:00,86.4,58.3,29.59,South,188,6.0,-999.0,22,-99.99,,,0.00,54.0,cwc,2013-07-22 23:25:00,
2013-07-22 17:30:00,86.3,58.2,29.59,South,190,6.0,-999.0,22,-99.99,,,0.00,56.0,cwc,2013-07-22 23:30:00,
2013-07-22 17:35:00,86.2,58.1,29.59,SSW,211,7.0,-999.0,22,-99.99,,,0.00,63.0,cwc,2013-07-22 23:35:00,
2013-07-22 17:45:00,85.8,58.1,29.59,SW,215,8.0,-999.0,23,-99.99,,,0.00,40.0,cwc,2013-07-22 23:45:00,
2013-07-22 17:55:00,85.5,58.1,29.60,SSW,195,0.0,-999.0,24,-99.99,,,0.00,47.0,cwc,2013-07-22 23:55:00,
2013-07-22 18:05:00,85.3,57.6,29.60,ENE,78,0.0,-999.0,23,-99.99,,,0.00,47.0,cwc,2013-07-23 00:05:00,
2013-07-22 18:10:00,85.4,57.3,29.59,SW,217,5.0,-999.0,22,-99.99,,,0.00,42.0,cwc,2013-07-23 00:10:00,
2013-07-22 18:15:00,85.6,57.5,29.59,SW,218,0.0,-999.0,22,-99.99,,,0.00,40.0,cwc,2013-07-23 00:15:00,
2013-07-22 18:20:00,85.7,58.0,29.59,SW,218,0.0,-999.0,23,-99.99,,,0.00,35.0,cwc,2013-07-23 00:20:00,
2013-07-22 18:25:00,85.6,57.9,29.59,SW,218,0.0,-999.0,23,-99.99,,,0.00,33.0,cwc,2013-07-23 00:25:00,
2013-07-22 18:30:00,85.5,57.8,29.59,SW,218,0.0,-999.0,23,-99.99,,,0.00,32.0,cwc,2013-07-23 00:30:00,
2013-07-22 18:35:00,85.3,57.6,29.59,SW,218,0.0,-999.0,23,-99.99,,,0.00,30.0,cwc,2013-07-23 00:35:00,
2013-07-22 18:40:00,85.2,57.8,29.60,SW,218,0.0,-999.0,24,-99.99,,,0.00,30.0,cwc,2013-07-23 00:40:00,
2013-07-22 18:45:00,85.1,57.7,29.60,SW,218,1.0,-999.0,24,-99.99,,,0.00,30.0,cwc,2013-07-23 00:45:00,
2013-07-22 18:50:00,85.0,57.6,29.60,SW,218,2.0,-999.0,24,-99.99,,,0.00,26.0,cwc,2013-07-23 00:50:00,
2013-07-22 18:55:00,85.2,57.5,29.60,SW,218,3.0,-999.0,23,-99.99,,,0.00,28.0,cwc,2013-07-23 00:55:00,
2013-07-22 19:00:00,85.3,57.6,29.60,SW,218,1.0,-999.0,23,-99.99,,,0.00,28.0,cwc,2013-07-23 01:00:00,
2013-07-22 19:05:00,85.1,57.7,29.60,SW,218,0.0,-999.0,24,-99.99,,,0.00,25.0,cwc,2013-07-23 01:05:00,
2013-07-22 19:10:00,84.8,57.4,29.60,SW,218,2.0,-999.0,24,-99.99,,,0.00,21.0,cwc,2013-07-23 01:10:00,
2013-07-22 19:15:00,84.6,57.2,29.60,SW,218,1.0,-999.0,24,-99.99,,,0.00,19.0,cwc,2013-07-23 01:15:00,
2013-07-22 19:20:00,84.5,57.1,29.60,SW,218,0.0,-999.0,24,-99.99,,,0.00,19.0,cwc,2013-07-23 01:20:00,
2013-07-22 19:25:00,84.4,57.0,29.60,SW,218,0.0,-999.0,24,-99.99,,,0.00,21.0,cwc,2013-07-23 01:25:00,
2013-07-22 19:30:00,84.3,57.3,29.60,SW,218,1.0,-999.0,25,-99.99,,,0.00,16.0,cwc,2013-07-23 01:30:00,
2013-07-22 19:35:00,84.0,56.6,29.60,SW,218,1.0,-999.0,24,-99.99,,,0.00,12.0,cwc,2013-07-23 01:35:00,
2013-07-22 19:40:00,83.7,56.7,29.60,SW,218,0.0,-999.0,25,-99.99,,,0.00,9.0,cwc,2013-07-23 01:40:00,
2013-07-22 19:45:00,83.4,56.8,29.60,SW,218,0.0,-999.0,26,-99.99,,,0.00,9.0,cwc,2013-07-23 01:45:00,
2013-07-22 19:50:00,82.9,56.3,29.60,SW,218,0.0,-999.0,26,-99.99,,,0.00,9.0,cwc,2013-07-23 01:50:00,
2013-07-22 19:55:00,82.4,55.8,29.60,SW,218,0.0,-999.0,26,-99.99,,,0.00,7.0,cwc,2013-07-23 01:55:00,
2013-07-22 20:00:00,82.2,56.3,29.60,SW,218,1.0,-999.0,28,-99.99,,,0.00,5.0,cwc,2013-07-23 02:00:00,
2013-07-22 20:10:00,81.5,55.2,29.60,SW,219,1.0,-999.0,27,-99.99,,,0.00,0.0,cwc,2013-07-23 02:10:00,
2013-07-22 20:15:00,81.5,54.9,29.61,SW,219,0.0,-999.0,26,-99.99,,,0.00,0.0,cwc,2013-07-23 02:15:00,
2013-07-22 20:20:00,81.6,55.0,29.61,SW,218,1.0,-999.0,26,-99.99,,,0.00,0.0,cwc,2013-07-23 02:20:00,
2013-07-22 20:30:00,81.9,55.6,29.61,SW,219,3.0,-999.0,27,-99.99,,,0.00,0.0,cwc,2013-07-23 02:30:00,
2013-07-22 20:35:00,82.2,55.9,29.61,SSW,196,9.0,-999.0,27,-99.99,,,0.00,0.0,cwc,2013-07-23 02:35:00,
2013-07-22 20:45:00,82.7,56.4,29.62,SSW,203,7.0,-999.0,27,-99.99,,,0.00,0.0,cwc,2013-07-23 02:45:00,
2013-07-22 20:50:00,82.6,56.0,29.61,SSW,205,3.0,-999.0,26,-99.99,,,0.00,0.0,cwc,2013-07-23 02:50:00,
2013-07-22 20:55:00,82.4,55.8,29.62,SSW,211,9.0,-999.0,26,-99.99,,,0.00,0.0,cwc,2013-07-23 02:55:00,
2013-07-22 21:00:00,82.2,55.6,29.62,SSW,208,0.0,-999.0,26,-99.99,,,0.00,0.0,cwc,2013-07-23 03:00:00,
2013-07-22 21:05:00,82.0,55.7,29.62,SSW,198,5.0,-999.0,27,-99.99,,,0.00,0.0,cwc,2013-07-23 03:05:00,
2013-07-22 21:15:00,81.6,55.3,29.63,SSW,209,2.0,-999.0,27,-99.99,,,0.00,0.0,cwc,2013-07-23 03:15:00,
2013-07-22 21:20:00,81.5,55.2,29.63,SSW,207,0.0,-999.0,27,-99.99,,,0.00,0.0,cwc,2013-07-23 03:20:00,
2013-07-22 21:25:00,81.3,55.0,29.63,SSW,207,1.0,-999.0,27,-99.99,,,0.00,0.0,cwc,2013-07-23 03:25:00,
2013-07-22 21:30:00,81.1,54.8,29.63,SSW,207,7.0,-999.0,27,-99.99,,,0.00,0.0,cwc,2013-07-23 03:30:00,
2013-07-22 21:35:00,80.9,55.0,29.63,SSW,207,1.0,-999.0,28,-99.99,,,0.00,0.0,cwc,2013-07-23 03:35:00,
2013-07-22 21:40:00,80.7,54.8,29.64,SSW,206,0.0,-999.0,28,-99.99,,,0.00,0.0,cwc,2013-07-23 03:40:00,
2013-07-22 21:45:00,80.4,54.8,29.64,SW,215,4.0,-999.0,29,-99.99,,,0.00,0.0,cwc,2013-07-23 03:45:00,
2013-07-22 21:50:00,80.2,54.6,29.64,SW,214,1.0,-999.0,29,-99.99,,,0.00,0.0,cwc,2013-07-23 03:50:00,
2013-07-22 21:55:00,79.9,54.3,29.64,SW,214,0.0,-999.0,29,-99.99,,,0.00,0.0,cwc,2013-07-23 03:55:00,
2013-07-22 22:00:00,79.5,54.3,29.64,SW,214,0.0,-999.0,30,-99.99,,,0.00,0.0,cwc,2013-07-23 04:00:00,
2013-07-22 22:05:00,79.1,53.9,29.64,SW,214,2.0,-999.0,30,-99.99,,,0.00,0.0,cwc,2013-07-23 04:05:00,
2013-07-22 22:10:00,78.4,53.6,29.65,SW,214,1.0,-999.0,31,-99.99,,,0.00,0.0,cwc,2013-07-23 04:10:00,
2013-07-22 22:15:00,77.8,53.0,29.65,SW,214,0.0,-999.0,31,-99.99,,,0.00,0.0,cwc,2013-07-23 04:15:00,
2013-07-22 22:20:00,77.3,52.8,29.65,SW,214,0.0,-999.0,32,-99.99,,,0.00,0.0,cwc,2013-07-23 04:20:00,
2013-07-22 22:25:00,76.7,52.2,29.65,SW,214,0.0,-999.0,32,-99.99,,,0.00,0.0,cwc,2013-07-23 04:25:00,
2013-07-22 22:30:00,76.3,52.2,29.65,SW,214,2.0,-999.0,33,-99.99,,,0.00,0.0,cwc,2013-07-23 04:30:00,
2013-07-22 22:35:00,75.8,51.7,29.65,SW,214,0.0,-999.0,33,-99.99,,,0.00,0.0,cwc,2013-07-23 04:35:00,
2013-07-22 22:40:00,75.4,51.3,29.66,SW,214,0.0,-999.0,33,-99.99,,,0.00,0.0,cwc,2013-07-23 04:40:00,
2013-07-22 22:45:00,75.2,51.4,29.65,SW,214,2.0,-999.0,34,-99.99,,,0.00,0.0,cwc,2013-07-23 04:45:00,
2013-07-22 22:50:00,74.8,51.0,29.66,SW,214,0.0,-999.0,34,-99.99,,,0.00,0.0,cwc,2013-07-23 04:50:00,
2013-07-22 22:55:00,74.6,51.2,29.66,SW,214,0.0,-999.0,35,-99.99,,,0.00,0.0,cwc,2013-07-23 04:55:00,
2013-07-22 23:00:00,74.3,50.5,29.66,SW,214,0.0,-999.0,34,-99.99,,,0.00,0.0,cwc,2013-07-23 05:00:00,
2013-07-22 23:05:00,74.2,50.4,29.66,SW,214,0.0,-999.0,34,-99.99,,,0.00,0.0,cwc,2013-07-23 05:05:00,
2013-07-22 23:10:00,74.1,50.7,29.66,SW,214,0.0,-999.0,35,-99.99,,,0.00,0.0,cwc,2013-07-23 05:10:00,
2013-07-22 23:15:00,74.1,50.7,29.66,SW,214,0.0,-999.0,35,-99.99,,,0.00,0.0,cwc,2013-07-23 05:15:00,
2013-07-22 23:20:00,74.2,50.8,29.66,SW,214,0.0,-999.0,35,-99.99,,,0.00,0.0,cwc,2013-07-23 05:20:00,
2013-07-22 23:25:00,74.0,51.0,29.66,SW,214,0.0,-999.0,36,-99.99,,,0.00,0.0,cwc,2013-07-23 05:25:00,
2013-07-22 23:30:00,73.8,50.8,29.66,SW,214,0.0,-999.0,36,-99.99,,,0.00,0.0,cwc,2013-07-23 05:30:00,
2013-07-22 23:35:00,73.5,50.5,29.66,SW,214,0.0,-999.0,36,-99.99,,,0.00,0.0,cwc,2013-07-23 05:35:00,
2013-07-22 23:40:00,73.0,50.0,29.67,SW,214,0.0,-999.0,36,-99.99,,,0.00,0.0,cwc,2013-07-23 05:40:00,
2013-07-22 23:45:00,72.7,50.0,29.67,SW,214,0.0,-999.0,37,-99.99,,,0.00,0.0,cwc,2013-07-23 05:45:00,
2013-07-22 23:50:00,72.3,49.6,29.66,SW,214,0.0,-999.0,37,-99.99,,,0.00,0.0,cwc,2013-07-23 05:50:00,
2013-07-22 23:55:00,72.0,49.7,29.66,SW,214,2.0,-999.0,38,-99.99,,,0.00,0.0,cwc,2013-07-23 05:55:00,